Year,Month,Day,Hour,Minute,Value (Times are PST for temperature in C)
2021,06,22,00,00,18.40
2021,06,22,00,01,18.50
2021,06,22,00,02,18.50
2021,06,22,00,03,18.60
2021,06,22,00,04,18.60
2021,06,22,00,05,18.60
2021,06,22,00,06,18.70
2021,06,22,00,07,18.70
2021,06,22,00,08,18.70
2021,06,22,00,09,18.80
2021,06,22,00,10,18.80
2021,06,22,00,11,18.80
2021,06,22,00,12,18.80
2021,06,22,00,13,18.90
2021,06,22,00,14,18.90
2021,06,22,00,15,18.90
2021,06,22,00,16,19.00
2021,06,22,00,17,19.10
2021,06,22,00,18,19.10
2021,06,22,00,19,19.10
2021,06,22,00,20,19.10
2021,06,22,00,21,19.10
2021,06,22,00,22,19.10
2021,06,22,00,23,19.10
2021,06,22,00,24,19.10
2021,06,22,00,25,19.10
2021,06,22,00,26,19.10
2021,06,22,00,27,18.90
2021,06,22,00,28,18.90
2021,06,22,00,29,18.90
2021,06,22,00,30,18.90
2021,06,22,00,31,18.90
2021,06,22,00,32,18.90
2021,06,22,00,33,18.90
2021,06,22,00,34,18.90
2021,06,22,00,35,18.90
2021,06,22,00,36,18.90
2021,06,22,00,37,18.90
2021,06,22,00,38,18.80
2021,06,22,00,39,18.80
2021,06,22,00,40,18.80
2021,06,22,00,41,18.80
2021,06,22,00,42,18.80
2021,06,22,00,43,18.80
2021,06,22,00,44,18.70
2021,06,22,00,45,18.70
2021,06,22,00,46,18.70
2021,06,22,00,47,18.70
2021,06,22,00,48,18.70
2021,06,22,00,49,18.70
2021,06,22,00,50,18.70
2021,06,22,00,51,18.70
2021,06,22,00,52,18.80
2021,06,22,00,53,18.80
2021,06,22,00,54,18.80
2021,06,22,00,55,18.80
2021,06,22,00,56,18.80
2021,06,22,00,57,18.90
2021,06,22,00,58,18.90
2021,06,22,00,59,18.90
2021,06,22,01,00,18.90
2021,06,22,01,01,18.90
2021,06,22,01,02,18.90
2021,06,22,01,03,18.90
2021,06,22,01,04,18.90
2021,06,22,01,05,18.90
2021,06,22,01,06,18.90
2021,06,22,01,07,18.90
2021,06,22,01,08,18.90
2021,06,22,01,09,18.90
2021,06,22,01,10,19.00
2021,06,22,01,11,19.10
2021,06,22,01,12,19.10
2021,06,22,01,13,19.10
2021,06,22,01,14,19.10
2021,06,22,01,15,19.10
2021,06,22,01,16,19.10
2021,06,22,01,17,19.10
2021,06,22,01,18,19.10
2021,06,22,01,19,19.10
2021,06,22,01,20,19.10
2021,06,22,01,21,19.20
2021,06,22,01,22,19.20
2021,06,22,01,23,19.20
2021,06,22,01,24,19.20
2021,06,22,01,25,19.20
2021,06,22,01,26,19.10
2021,06,22,01,27,19.10
2021,06,22,01,28,19.10
2021,06,22,01,29,19.10
2021,06,22,01,30,19.10
2021,06,22,01,31,19.10
2021,06,22,01,32,19.00
2021,06,22,01,33,18.90
2021,06,22,01,34,18.90
2021,06,22,01,35,18.90
2021,06,22,01,36,18.90
2021,06,22,01,37,18.90
2021,06,22,01,38,18.90
2021,06,22,01,39,18.90
2021,06,22,01,40,18.90
2021,06,22,01,41,18.90
2021,06,22,01,42,18.80
2021,06,22,01,43,18.80
2021,06,22,01,44,18.80
2021,06,22,01,45,18.80
2021,06,22,01,46,18.80
2021,06,22,01,47,18.70
2021,06,22,01,48,18.70
2021,06,22,01,49,18.70
2021,06,22,01,50,18.70
2021,06,22,01,51,18.70
2021,06,22,01,52,18.70
2021,06,22,01,53,18.70
2021,06,22,01,54,18.70
2021,06,22,01,55,18.70
2021,06,22,01,56,18.70
2021,06,22,01,57,18.70
2021,06,22,01,58,18.80
2021,06,22,01,59,18.70
2021,06,22,02,00,18.70
2021,06,22,02,01,18.70
2021,06,22,02,02,18.70
2021,06,22,02,03,18.70
2021,06,22,02,04,18.60
2021,06,22,02,05,18.60
2021,06,22,02,06,18.60
2021,06,22,02,07,18.60
2021,06,22,02,08,18.50
2021,06,22,02,09,18.50
2021,06,22,02,10,18.50
2021,06,22,02,11,18.50
2021,06,22,02,12,18.50
2021,06,22,02,13,18.50
2021,06,22,02,14,18.40
2021,06,22,02,15,18.40
2021,06,22,02,16,18.40
2021,06,22,02,17,18.40
2021,06,22,02,18,18.40
2021,06,22,02,19,18.40
2021,06,22,02,20,18.40
2021,06,22,02,21,18.40
2021,06,22,02,22,18.40
2021,06,22,02,23,18.40
2021,06,22,02,24,18.40
2021,06,22,02,25,18.40
2021,06,22,02,26,18.40
2021,06,22,02,27,18.50
2021,06,22,02,28,18.50
2021,06,22,02,29,18.50
2021,06,22,02,30,18.60
2021,06,22,02,31,18.60
2021,06,22,02,32,18.60
2021,06,22,02,33,18.70
2021,06,22,02,34,18.70
2021,06,22,02,35,18.70
2021,06,22,02,36,18.70
2021,06,22,02,37,18.70
2021,06,22,02,38,18.60
2021,06,22,02,39,18.60
2021,06,22,02,40,18.60
2021,06,22,02,41,18.60
2021,06,22,02,42,18.50
2021,06,22,02,43,18.50
2021,06,22,02,44,18.30
2021,06,22,02,45,18.10
2021,06,22,02,46,17.80
2021,06,22,02,47,17.60
2021,06,22,02,48,17.30
2021,06,22,02,49,17.10
2021,06,22,02,50,16.90
2021,06,22,02,51,16.80
2021,06,22,02,52,16.70
2021,06,22,02,53,16.60
2021,06,22,02,54,16.60
2021,06,22,02,55,16.50
2021,06,22,02,56,16.40
2021,06,22,02,57,16.40
2021,06,22,02,58,16.40
2021,06,22,02,59,16.40
2021,06,22,03,00,16.40
2021,06,22,03,01,16.40
2021,06,22,03,02,16.40
2021,06,22,03,03,16.50
2021,06,22,03,04,16.60
2021,06,22,03,05,16.60
2021,06,22,03,06,16.60
2021,06,22,03,07,16.60
2021,06,22,03,08,16.70
2021,06,22,03,09,16.70
2021,06,22,03,10,16.60
2021,06,22,03,11,16.60
2021,06,22,03,12,16.50
2021,06,22,03,13,16.40
2021,06,22,03,14,16.40
2021,06,22,03,15,16.40
2021,06,22,03,16,16.40
2021,06,22,03,17,16.40
2021,06,22,03,18,16.30
2021,06,22,03,19,16.30
2021,06,22,03,20,16.30
2021,06,22,03,21,16.30
2021,06,22,03,22,16.20
2021,06,22,03,23,16.20
2021,06,22,03,24,16.20
2021,06,22,03,25,16.20
2021,06,22,03,26,16.20
2021,06,22,03,27,16.10
2021,06,22,03,28,16.10
2021,06,22,03,29,16.10
2021,06,22,03,30,16.10
2021,06,22,03,31,16.10
2021,06,22,03,32,16.10
2021,06,22,03,33,16.10
2021,06,22,03,34,16.10
2021,06,22,03,35,16.10
2021,06,22,03,36,16.10
2021,06,22,03,37,16.10
2021,06,22,03,38,16.10
2021,06,22,03,39,16.00
2021,06,22,03,40,15.90
2021,06,22,03,41,15.90
2021,06,22,03,42,15.90
2021,06,22,03,43,15.90
2021,06,22,03,44,15.80
2021,06,22,03,45,15.80
2021,06,22,03,46,15.80
2021,06,22,03,47,15.80
2021,06,22,03,48,15.80
2021,06,22,03,49,15.80
2021,06,22,03,50,15.80
2021,06,22,03,51,15.80
2021,06,22,03,52,15.70
2021,06,22,03,53,15.60
2021,06,22,03,54,15.50
2021,06,22,03,55,15.50
2021,06,22,03,56,15.40
2021,06,22,03,57,15.40
2021,06,22,03,58,15.30
2021,06,22,03,59,15.30
2021,06,22,04,00,15.30
2021,06,22,04,01,15.30
2021,06,22,04,02,15.30
2021,06,22,04,03,15.30
2021,06,22,04,04,15.30
2021,06,22,04,05,15.30
2021,06,22,04,06,15.30
2021,06,22,04,07,15.40
2021,06,22,04,08,15.40
2021,06,22,04,09,15.40
2021,06,22,04,10,15.50
2021,06,22,04,11,15.50
2021,06,22,04,12,15.60
2021,06,22,04,13,15.60
2021,06,22,04,14,15.60
2021,06,22,04,15,15.60
2021,06,22,04,16,15.70
2021,06,22,04,17,15.70
2021,06,22,04,18,15.70
2021,06,22,04,19,15.70
2021,06,22,04,20,15.70
2021,06,22,04,21,15.70
2021,06,22,04,22,15.70
2021,06,22,04,23,15.70
2021,06,22,04,24,15.70
2021,06,22,04,25,15.70
2021,06,22,04,26,15.60
2021,06,22,04,27,15.60
2021,06,22,04,28,15.60
2021,06,22,04,29,15.60
2021,06,22,04,30,15.60
2021,06,22,04,31,15.60
2021,06,22,04,32,15.60
2021,06,22,04,33,15.60
2021,06,22,04,34,15.60
2021,06,22,04,35,15.60
2021,06,22,04,36,15.50
2021,06,22,04,37,15.50
2021,06,22,04,38,15.50
2021,06,22,04,39,15.50
2021,06,22,04,40,15.50
2021,06,22,04,41,15.40
2021,06,22,04,42,15.40
2021,06,22,04,43,15.40
2021,06,22,04,44,15.40
2021,06,22,04,45,15.40
2021,06,22,04,46,15.30
2021,06,22,04,47,15.30
2021,06,22,04,48,15.30
2021,06,22,04,49,15.30
2021,06,22,04,50,15.30
2021,06,22,04,51,15.30
2021,06,22,04,52,15.20
2021,06,22,04,53,15.20
2021,06,22,04,54,15.20
2021,06,22,04,55,15.20
2021,06,22,04,56,15.20
2021,06,22,04,57,15.10
2021,06,22,04,58,15.10
2021,06,22,04,59,15.10
2021,06,22,05,00,15.10
2021,06,22,05,01,15.10
2021,06,22,05,02,15.10
2021,06,22,05,03,15.10
2021,06,22,05,04,15.10
2021,06,22,05,05,15.10
2021,06,22,05,06,15.10
2021,06,22,05,07,15.10
2021,06,22,05,08,15.10
2021,06,22,05,09,15.10
2021,06,22,05,10,15.10
2021,06,22,05,11,15.00
2021,06,22,05,12,14.90
2021,06,22,05,13,14.90
2021,06,22,05,14,14.80
2021,06,22,05,15,14.70
2021,06,22,05,16,14.60
2021,06,22,05,17,14.50
2021,06,22,05,18,14.40
2021,06,22,05,19,14.20
2021,06,22,05,20,14.10
2021,06,22,05,21,14.00
2021,06,22,05,22,14.00
2021,06,22,05,23,13.90
2021,06,22,05,24,13.90
2021,06,22,05,25,13.80
2021,06,22,05,26,13.80
2021,06,22,05,27,13.70
2021,06,22,05,28,13.70
2021,06,22,05,29,13.70
2021,06,22,05,30,13.70
2021,06,22,05,31,13.60
2021,06,22,05,32,13.60
2021,06,22,05,33,13.60
2021,06,22,05,34,13.50
2021,06,22,05,35,13.50
2021,06,22,05,36,13.50
2021,06,22,05,37,13.50
2021,06,22,05,38,13.50
2021,06,22,05,39,13.40
2021,06,22,05,40,13.40
2021,06,22,05,41,13.40
2021,06,22,05,42,13.40
2021,06,22,05,43,13.50
2021,06,22,05,44,13.50
2021,06,22,05,45,13.50
2021,06,22,05,46,13.50
2021,06,22,05,47,13.50
2021,06,22,05,48,13.50
2021,06,22,05,49,13.60
2021,06,22,05,50,13.60
2021,06,22,05,51,13.60
2021,06,22,05,52,13.60
2021,06,22,05,53,13.60
2021,06,22,05,54,13.60
2021,06,22,05,55,13.60
2021,06,22,05,56,13.60
2021,06,22,05,57,13.50
2021,06,22,05,58,13.50
2021,06,22,05,59,13.50
2021,06,22,06,00,13.50
2021,06,22,06,01,13.50
2021,06,22,06,02,13.50
2021,06,22,06,03,13.50
2021,06,22,06,04,13.60
2021,06,22,06,05,13.60
2021,06,22,06,06,13.60
2021,06,22,06,07,13.70
2021,06,22,06,08,13.70
2021,06,22,06,09,13.70
2021,06,22,06,10,13.70
2021,06,22,06,11,13.80
2021,06,22,06,12,13.80
2021,06,22,06,13,13.90
2021,06,22,06,14,14.00
2021,06,22,06,15,14.00
2021,06,22,06,16,14.10
2021,06,22,06,17,14.20
2021,06,22,06,18,14.20
2021,06,22,06,19,14.30
2021,06,22,06,20,14.40
2021,06,22,06,21,14.50
2021,06,22,06,22,14.60
2021,06,22,06,23,14.60
2021,06,22,06,24,14.70
2021,06,22,06,25,14.80
2021,06,22,06,26,14.90
2021,06,22,06,27,15.00
2021,06,22,06,28,15.10
2021,06,22,06,29,15.20
2021,06,22,06,30,15.30
2021,06,22,06,31,15.40
2021,06,22,06,32,15.40
2021,06,22,06,33,15.50
2021,06,22,06,34,15.60
2021,06,22,06,35,15.60
2021,06,22,06,36,15.70
2021,06,22,06,37,15.80
2021,06,22,06,38,15.80
2021,06,22,06,39,15.80
2021,06,22,06,40,15.90
2021,06,22,06,41,16.00
2021,06,22,06,42,16.10
2021,06,22,06,43,16.20
2021,06,22,06,44,16.20
2021,06,22,06,45,16.20
2021,06,22,06,46,16.20
2021,06,22,06,47,16.20
2021,06,22,06,48,16.30
2021,06,22,06,49,16.30
2021,06,22,06,50,16.30
2021,06,22,06,51,16.20
2021,06,22,06,52,16.20
2021,06,22,06,53,16.10
2021,06,22,06,54,16.00
2021,06,22,06,55,15.90
2021,06,22,06,56,15.90
2021,06,22,06,57,15.80
2021,06,22,06,58,15.80
2021,06,22,06,59,15.80
2021,06,22,07,00,15.80
2021,06,22,07,01,15.80
2021,06,22,07,02,15.80
2021,06,22,07,03,15.80
2021,06,22,07,04,15.80
2021,06,22,07,05,15.80
2021,06,22,07,06,15.80
2021,06,22,07,07,15.80
2021,06,22,07,08,15.80
2021,06,22,07,09,15.80
2021,06,22,07,10,15.90
2021,06,22,07,11,15.90
2021,06,22,07,12,15.90
2021,06,22,07,13,15.90
2021,06,22,07,14,15.90
2021,06,22,07,15,16.00
2021,06,22,07,16,16.00
2021,06,22,07,17,15.90
2021,06,22,07,18,15.80
2021,06,22,07,19,15.80
2021,06,22,07,20,15.80
2021,06,22,07,21,15.80
2021,06,22,07,22,15.70
2021,06,22,07,23,15.60
2021,06,22,07,24,15.60
2021,06,22,07,25,15.60
2021,06,22,07,26,15.60
2021,06,22,07,27,15.70
2021,06,22,07,28,15.70
2021,06,22,07,29,15.70
2021,06,22,07,30,15.80
2021,06,22,07,31,15.80
2021,06,22,07,32,15.80
2021,06,22,07,33,15.80
2021,06,22,07,34,15.90
2021,06,22,07,35,16.00
2021,06,22,07,36,16.10
2021,06,22,07,37,16.10
2021,06,22,07,38,16.10
2021,06,22,07,39,16.10
2021,06,22,07,40,16.10
2021,06,22,07,41,16.20
2021,06,22,07,42,16.30
2021,06,22,07,43,16.40
2021,06,22,07,44,16.30
2021,06,22,07,45,16.30
2021,06,22,07,46,16.40
2021,06,22,07,47,16.40
2021,06,22,07,48,16.40
2021,06,22,07,49,16.40
2021,06,22,07,50,16.40
2021,06,22,07,51,16.40
2021,06,22,07,52,16.40
2021,06,22,07,53,16.40
2021,06,22,07,54,16.40
2021,06,22,07,55,16.50
2021,06,22,07,56,16.60
2021,06,22,07,57,16.70
2021,06,22,07,58,16.70
2021,06,22,07,59,16.70
2021,06,22,08,00,16.70
2021,06,22,08,01,16.70
2021,06,22,08,02,16.70
2021,06,22,08,03,16.80
2021,06,22,08,04,16.80
2021,06,22,08,05,16.80
2021,06,22,08,06,16.80
2021,06,22,08,07,16.80
2021,06,22,08,08,16.80
2021,06,22,08,09,16.70
2021,06,22,08,10,16.70
2021,06,22,08,11,16.70
2021,06,22,08,12,16.70
2021,06,22,08,13,16.70
2021,06,22,08,14,16.60
2021,06,22,08,15,16.50
2021,06,22,08,16,16.30
2021,06,22,08,17,16.20
2021,06,22,08,18,16.00
2021,06,22,08,19,15.90
2021,06,22,08,20,15.80
2021,06,22,08,21,15.70
2021,06,22,08,22,15.50
2021,06,22,08,23,15.30
2021,06,22,08,24,15.20
2021,06,22,08,25,15.10
2021,06,22,08,26,14.90
2021,06,22,08,27,14.80
2021,06,22,08,28,14.80
2021,06,22,08,29,14.80
2021,06,22,08,30,14.80
2021,06,22,08,31,14.80
2021,06,22,08,32,14.70
2021,06,22,08,33,14.60
2021,06,22,08,34,14.60
2021,06,22,08,35,14.60
2021,06,22,08,36,14.50
2021,06,22,08,37,14.50
2021,06,22,08,38,14.50
2021,06,22,08,39,14.50
2021,06,22,08,40,14.50
2021,06,22,08,41,14.50
2021,06,22,08,42,14.50
2021,06,22,08,43,14.60
2021,06,22,08,44,14.60
2021,06,22,08,45,14.50
2021,06,22,08,46,14.50
2021,06,22,08,47,14.40
2021,06,22,08,48,14.40
2021,06,22,08,49,14.30
2021,06,22,08,50,14.30
2021,06,22,08,51,14.40
2021,06,22,08,52,14.40
2021,06,22,08,53,14.40
2021,06,22,08,54,14.40
2021,06,22,08,55,14.40
2021,06,22,08,56,14.50
2021,06,22,08,57,14.50
2021,06,22,08,58,14.50
2021,06,22,08,59,14.70
2021,06,22,09,00,14.80
2021,06,22,09,01,14.90
2021,06,22,09,02,14.90
2021,06,22,09,03,15.00
2021,06,22,09,04,15.10
2021,06,22,09,05,15.20
2021,06,22,09,06,15.20
2021,06,22,09,07,15.20
2021,06,22,09,08,15.30
2021,06,22,09,09,15.30
2021,06,22,09,10,15.30
2021,06,22,09,11,15.30
2021,06,22,09,12,15.40
2021,06,22,09,13,15.50
2021,06,22,09,14,15.50
2021,06,22,09,15,15.60
2021,06,22,09,16,15.70
2021,06,22,09,17,15.60
2021,06,22,09,18,15.60
2021,06,22,09,19,15.50
2021,06,22,09,20,15.50
2021,06,22,09,21,15.50
2021,06,22,09,22,15.60
2021,06,22,09,23,15.50
2021,06,22,09,24,15.50
2021,06,22,09,25,15.50
2021,06,22,09,26,15.50
2021,06,22,09,27,15.50
2021,06,22,09,28,15.60
2021,06,22,09,29,15.60
2021,06,22,09,30,15.80
2021,06,22,09,31,15.90
2021,06,22,09,32,16.10
2021,06,22,09,33,16.30
2021,06,22,09,34,16.40
2021,06,22,09,35,16.60
2021,06,22,09,36,16.70
2021,06,22,09,37,16.70
2021,06,22,09,38,16.80
2021,06,22,09,39,16.90
2021,06,22,09,40,16.90
2021,06,22,09,41,17.00
2021,06,22,09,42,17.10
2021,06,22,09,43,17.10
2021,06,22,09,44,17.20
2021,06,22,09,45,17.20
2021,06,22,09,46,17.30
2021,06,22,09,47,17.50
2021,06,22,09,48,17.60
2021,06,22,09,49,17.80
2021,06,22,09,50,17.90
2021,06,22,09,51,17.90
2021,06,22,09,52,18.10
2021,06,22,09,53,18.20
2021,06,22,09,54,18.20
2021,06,22,09,55,18.20
2021,06,22,09,56,18.00
2021,06,22,09,57,17.90
2021,06,22,09,58,17.70
2021,06,22,09,59,17.50
2021,06,22,10,00,17.30
2021,06,22,10,01,17.10
2021,06,22,10,02,17.00
2021,06,22,10,03,17.00
2021,06,22,10,04,17.00
2021,06,22,10,05,17.10
2021,06,22,10,06,17.10
2021,06,22,10,07,17.10
2021,06,22,10,08,17.20
2021,06,22,10,09,17.30
2021,06,22,10,10,17.30
2021,06,22,10,11,17.40
2021,06,22,10,12,17.40
2021,06,22,10,13,17.30
2021,06,22,10,14,17.20
2021,06,22,10,15,17.20
2021,06,22,10,16,17.20
2021,06,22,10,17,17.20
2021,06,22,10,18,17.20
2021,06,22,10,19,17.20
2021,06,22,10,20,17.10
2021,06,22,10,21,16.90
2021,06,22,10,22,16.70
2021,06,22,10,23,16.50
2021,06,22,10,24,16.30
2021,06,22,10,25,16.20
2021,06,22,10,26,16.20
2021,06,22,10,27,16.20
2021,06,22,10,28,16.20
2021,06,22,10,29,16.10
2021,06,22,10,30,16.10
2021,06,22,10,31,16.10
2021,06,22,10,32,15.90
2021,06,22,10,33,15.90
2021,06,22,10,34,15.80
2021,06,22,10,35,15.70
2021,06,22,10,36,15.60
2021,06,22,10,37,15.40
2021,06,22,10,38,15.30
2021,06,22,10,39,15.20
2021,06,22,10,40,15.20
2021,06,22,10,41,15.20
2021,06,22,10,42,15.10
2021,06,22,10,43,14.90
2021,06,22,10,44,14.70
2021,06,22,10,45,14.60
2021,06,22,10,46,14.50
2021,06,22,10,47,14.50
2021,06,22,10,48,14.60
2021,06,22,10,49,14.60
2021,06,22,10,50,14.50
2021,06,22,10,51,14.50
2021,06,22,10,52,14.40
2021,06,22,10,53,14.20
2021,06,22,10,54,14.20
2021,06,22,10,55,14.30
2021,06,22,10,56,14.30
2021,06,22,10,57,14.20
2021,06,22,10,58,14.20
2021,06,22,10,59,14.30
2021,06,22,11,00,14.50
2021,06,22,11,01,14.60
2021,06,22,11,02,14.80
2021,06,22,11,03,14.80
2021,06,22,11,04,14.90
2021,06,22,11,05,14.90
2021,06,22,11,06,14.90
2021,06,22,11,07,14.90
2021,06,22,11,08,14.80
2021,06,22,11,09,14.70
2021,06,22,11,10,14.60
2021,06,22,11,11,14.50
2021,06,22,11,12,14.40
2021,06,22,11,13,14.30
2021,06,22,11,14,14.40
2021,06,22,11,15,14.40
2021,06,22,11,16,14.30
2021,06,22,11,17,14.30
2021,06,22,11,18,14.30
2021,06,22,11,19,14.30
2021,06,22,11,20,14.30
2021,06,22,11,21,14.40
2021,06,22,11,22,14.40
2021,06,22,11,23,14.30
2021,06,22,11,24,14.30
2021,06,22,11,25,14.20
2021,06,22,11,26,14.20
2021,06,22,11,27,14.20
2021,06,22,11,28,14.10
2021,06,22,11,29,14.10
2021,06,22,11,30,14.10
2021,06,22,11,31,14.20
2021,06,22,11,32,14.20
2021,06,22,11,33,14.20
2021,06,22,11,34,14.20
2021,06,22,11,35,14.20
2021,06,22,11,36,14.20
2021,06,22,11,37,14.20
2021,06,22,11,38,14.20
2021,06,22,11,39,14.20
2021,06,22,11,40,14.00
2021,06,22,11,41,13.90
2021,06,22,11,42,13.90
2021,06,22,11,43,14.00
2021,06,22,11,44,14.10
2021,06,22,11,45,14.20
2021,06,22,11,46,14.30
2021,06,22,11,47,14.40
2021,06,22,11,48,14.50
2021,06,22,11,49,14.60
2021,06,22,11,50,14.60
2021,06,22,11,51,14.70
2021,06,22,11,52,14.70
2021,06,22,11,53,14.80
2021,06,22,11,54,14.80
2021,06,22,11,55,14.80
2021,06,22,11,56,14.80
2021,06,22,11,57,14.80
2021,06,22,11,58,14.90
2021,06,22,11,59,14.80
2021,06,22,12,00,14.80
2021,06,22,12,01,14.70
2021,06,22,12,02,14.60
2021,06,22,12,03,14.60
2021,06,22,12,04,14.50
2021,06,22,12,05,14.50
2021,06,22,12,06,14.60
2021,06,22,12,07,14.60
2021,06,22,12,08,14.60
2021,06,22,12,09,14.50
2021,06,22,12,10,14.50
2021,06,22,12,11,14.50
2021,06,22,12,12,14.60
2021,06,22,12,13,14.80
2021,06,22,12,14,14.90
2021,06,22,12,15,15.00
2021,06,22,12,16,15.10
2021,06,22,12,17,15.20
2021,06,22,12,18,15.40
2021,06,22,12,19,15.50
2021,06,22,12,20,15.70
2021,06,22,12,21,15.80
2021,06,22,12,22,16.00
2021,06,22,12,23,16.10
2021,06,22,12,24,16.10
2021,06,22,12,25,16.10
2021,06,22,12,26,16.10
2021,06,22,12,27,16.30
2021,06,22,12,28,16.50
2021,06,22,12,29,16.60
2021,06,22,12,30,16.70
2021,06,22,12,31,16.60
2021,06,22,12,32,16.60
2021,06,22,12,33,16.50
2021,06,22,12,34,16.40
2021,06,22,12,35,16.30
2021,06,22,12,36,16.30
2021,06,22,12,37,16.30
2021,06,22,12,38,16.30
2021,06,22,12,39,16.40
2021,06,22,12,40,16.50
2021,06,22,12,41,16.60
2021,06,22,12,42,16.70
2021,06,22,12,43,16.90
2021,06,22,12,44,17.00
2021,06,22,12,45,17.10
2021,06,22,12,46,17.00
2021,06,22,12,47,17.00
2021,06,22,12,48,17.00
2021,06,22,12,49,17.10
2021,06,22,12,50,17.20
2021,06,22,12,51,17.20
2021,06,22,12,52,17.30
2021,06,22,12,53,17.30
2021,06,22,12,54,17.30
2021,06,22,12,55,17.30
2021,06,22,12,56,17.20
2021,06,22,12,57,17.30
2021,06,22,12,58,17.30
2021,06,22,12,59,17.40
2021,06,22,13,00,17.40
2021,06,22,13,01,17.40
2021,06,22,13,02,17.40
2021,06,22,13,03,17.40
2021,06,22,13,04,17.40
2021,06,22,13,05,17.50
2021,06,22,13,06,17.50
2021,06,22,13,07,17.60
2021,06,22,13,08,17.60
2021,06,22,13,09,17.60
2021,06,22,13,10,17.60
2021,06,22,13,11,17.70
2021,06,22,13,12,17.60
2021,06,22,13,13,17.50
2021,06,22,13,14,17.40
2021,06,22,13,15,17.50
2021,06,22,13,16,17.50
2021,06,22,13,17,17.60
2021,06,22,13,18,17.70
2021,06,22,13,19,17.70
2021,06,22,13,20,17.80
2021,06,22,13,21,17.80
2021,06,22,13,22,17.90
2021,06,22,13,23,17.90
2021,06,22,13,24,17.90
2021,06,22,13,25,18.10
2021,06,22,13,26,18.20
2021,06,22,13,27,18.30
2021,06,22,13,28,18.40
2021,06,22,13,29,18.50
2021,06,22,13,30,18.50
2021,06,22,13,31,18.60
2021,06,22,13,32,18.70
2021,06,22,13,33,18.80
2021,06,22,13,34,18.80
2021,06,22,13,35,18.80
2021,06,22,13,36,18.90
2021,06,22,13,37,18.90
2021,06,22,13,38,18.90
2021,06,22,13,39,19.00
2021,06,22,13,40,19.10
2021,06,22,13,41,19.10
2021,06,22,13,42,19.10
2021,06,22,13,43,19.10
2021,06,22,13,44,19.20
2021,06,22,13,45,19.10
2021,06,22,13,46,19.10
2021,06,22,13,47,19.10
2021,06,22,13,48,19.20
2021,06,22,13,49,19.20
2021,06,22,13,50,19.30
2021,06,22,13,51,19.30
2021,06,22,13,52,19.30
2021,06,22,13,53,19.30
2021,06,22,13,54,19.30
2021,06,22,13,55,19.40
2021,06,22,13,56,19.50
2021,06,22,13,57,19.50
2021,06,22,13,58,19.50
2021,06,22,13,59,19.60
2021,06,22,14,00,19.60
2021,06,22,14,01,19.60
2021,06,22,14,02,19.70
2021,06,22,14,03,19.70
2021,06,22,14,04,19.60
2021,06,22,14,05,19.60
2021,06,22,14,06,19.60
2021,06,22,14,07,19.50
2021,06,22,14,08,19.50
2021,06,22,14,09,19.40
2021,06,22,14,10,19.30
2021,06,22,14,11,19.20
2021,06,22,14,12,19.20
2021,06,22,14,13,19.10
2021,06,22,14,14,19.10
2021,06,22,14,15,19.10
2021,06,22,14,16,19.10
2021,06,22,14,17,19.20
2021,06,22,14,18,19.20
2021,06,22,14,19,19.30
2021,06,22,14,20,19.30
2021,06,22,14,21,19.30
2021,06,22,14,22,19.30
2021,06,22,14,23,19.20
2021,06,22,14,24,19.30
2021,06,22,14,25,19.20
2021,06,22,14,26,19.20
2021,06,22,14,27,19.20
2021,06,22,14,28,19.30
2021,06,22,14,29,19.40
2021,06,22,14,30,19.40
2021,06,22,14,31,19.50
2021,06,22,14,32,19.60
2021,06,22,14,33,19.70
2021,06,22,14,34,19.70
2021,06,22,14,35,19.70
2021,06,22,14,36,19.60
2021,06,22,14,37,19.50
2021,06,22,14,38,19.40
2021,06,22,14,39,19.40
2021,06,22,14,40,19.40
2021,06,22,14,41,19.40
2021,06,22,14,42,19.30
2021,06,22,14,43,19.30
2021,06,22,14,44,19.30
2021,06,22,14,45,19.20
2021,06,22,14,46,19.10
2021,06,22,14,47,19.10
2021,06,22,14,48,19.10
2021,06,22,14,49,19.10
2021,06,22,14,50,19.10
2021,06,22,14,51,19.00
2021,06,22,14,52,18.80
2021,06,22,14,53,18.70
2021,06,22,14,54,18.60
2021,06,22,14,55,18.40
2021,06,22,14,56,18.30
2021,06,22,14,57,18.30
2021,06,22,14,58,18.30
2021,06,22,14,59,18.30
2021,06,22,15,00,18.40
2021,06,22,15,01,18.40
2021,06,22,15,02,18.40
2021,06,22,15,03,18.50
2021,06,22,15,04,18.50
2021,06,22,15,05,18.50
2021,06,22,15,06,18.50
2021,06,22,15,07,18.40
2021,06,22,15,08,18.30
2021,06,22,15,09,18.20
2021,06,22,15,10,18.20
2021,06,22,15,11,18.20
2021,06,22,15,12,18.20
2021,06,22,15,13,18.20
2021,06,22,15,14,18.20
2021,06,22,15,15,18.20
2021,06,22,15,16,18.10
2021,06,22,15,17,18.10
2021,06,22,15,18,18.10
2021,06,22,15,19,18.00
2021,06,22,15,20,17.90
2021,06,22,15,21,17.90
2021,06,22,15,22,17.80
2021,06,22,15,23,17.80
2021,06,22,15,24,17.70
2021,06,22,15,25,17.70
2021,06,22,15,26,17.70
2021,06,22,15,27,17.70
2021,06,22,15,28,17.70
2021,06,22,15,29,17.70
2021,06,22,15,30,17.60
2021,06,22,15,31,17.50
2021,06,22,15,32,17.40
2021,06,22,15,33,17.30
2021,06,22,15,34,17.30
2021,06,22,15,35,17.30
2021,06,22,15,36,17.30
2021,06,22,15,37,17.30
2021,06,22,15,38,17.30
2021,06,22,15,39,17.30
2021,06,22,15,40,17.40
2021,06,22,15,41,17.30
2021,06,22,15,42,17.30
2021,06,22,15,43,17.30
2021,06,22,15,44,17.30
2021,06,22,15,45,17.30
2021,06,22,15,46,17.30
2021,06,22,15,47,17.30
2021,06,22,15,48,17.10
2021,06,22,15,49,17.00
2021,06,22,15,50,16.90
2021,06,22,15,51,16.90
2021,06,22,15,52,16.70
2021,06,22,15,53,16.60
2021,06,22,15,54,16.50
2021,06,22,15,55,16.40
2021,06,22,15,56,16.50
2021,06,22,15,57,16.60
2021,06,22,15,58,16.60
2021,06,22,15,59,16.70
2021,06,22,16,00,16.70
2021,06,22,16,01,16.80
2021,06,22,16,02,16.90
2021,06,22,16,03,17.10
2021,06,22,16,04,17.20
2021,06,22,16,05,17.30
2021,06,22,16,06,17.50
2021,06,22,16,07,17.60
2021,06,22,16,08,17.70
2021,06,22,16,09,17.80
2021,06,22,16,10,17.90
2021,06,22,16,11,17.90
2021,06,22,16,12,17.90
2021,06,22,16,13,18.00
2021,06,22,16,14,18.10
2021,06,22,16,15,18.20
2021,06,22,16,16,18.20
2021,06,22,16,17,18.30
2021,06,22,16,18,18.30
2021,06,22,16,19,18.30
2021,06,22,16,20,18.30
2021,06,22,16,21,18.40
2021,06,22,16,22,18.50
2021,06,22,16,23,18.70
2021,06,22,16,24,18.70
2021,06,22,16,25,18.80
2021,06,22,16,26,18.90
2021,06,22,16,27,18.90
2021,06,22,16,28,19.00
2021,06,22,16,29,19.10
2021,06,22,16,30,19.10
2021,06,22,16,31,19.10
2021,06,22,16,32,19.20
2021,06,22,16,33,19.30
2021,06,22,16,34,19.30
2021,06,22,16,35,19.30
2021,06,22,16,36,19.40
2021,06,22,16,37,19.40
2021,06,22,16,38,19.30
2021,06,22,16,39,19.20
2021,06,22,16,40,19.00
2021,06,22,16,41,18.80
2021,06,22,16,42,18.60
2021,06,22,16,43,18.50
2021,06,22,16,44,18.30
2021,06,22,16,45,18.20
2021,06,22,16,46,18.20
2021,06,22,16,47,18.20
2021,06,22,16,48,18.30
2021,06,22,16,49,18.30
2021,06,22,16,50,18.50
2021,06,22,16,51,18.60
2021,06,22,16,52,18.70
2021,06,22,16,53,18.90
2021,06,22,16,54,19.00
2021,06,22,16,55,19.10
2021,06,22,16,56,19.30
2021,06,22,16,57,19.40
2021,06,22,16,58,19.50
2021,06,22,16,59,19.60
2021,06,22,17,00,19.70
2021,06,22,17,01,19.70
2021,06,22,17,02,19.80
2021,06,22,17,03,19.80
2021,06,22,17,04,19.80
2021,06,22,17,05,19.80
2021,06,22,17,06,19.70
2021,06,22,17,07,19.60
2021,06,22,17,08,19.40
2021,06,22,17,09,19.30
2021,06,22,17,10,19.20
2021,06,22,17,11,19.10
2021,06,22,17,12,19.10
2021,06,22,17,13,19.20
2021,06,22,17,14,19.20
2021,06,22,17,15,19.30
2021,06,22,17,16,19.30
2021,06,22,17,17,19.30
2021,06,22,17,18,19.20
2021,06,22,17,19,19.00